CW8374 Weather Reports


time (UTC)temp
C
wind
direction
speed
KPH
gust
KPH
rain 1hr
cm
rain 24hr
cm
rain mn
cm
humidity
%
barometer
mb
20260504234404 7 265 0.0 0.0 0.00 0.00 0.00 3 1012.6
20260504233904 7 265 0.0 1.6 0.00 0.00 0.00 3 1012.6
20260504231404 7 297 0.0 1.6 0.00 0.00 0.00 3 1012.6
20260504230403 7 281 0.0 1.6 0.00 0.00 0.00 3 1012.6
20260504224904 8 287 0.0 1.6 0.00 0.00 0.00 3 1012.5
20260504223904 8 287 0.0 3.2 0.00 0.00 0.00 3 1012.6
20260504223404 8 279 0.0 3.2 0.00 0.00 0.00 3 1012.7
20260504221404 8 268 0.0 0.0 0.00 0.00 0.00 3 1012.8
20260504220404 8 253 0.0 1.6 0.00 0.00 0.00 3 1012.8
20260504214903 8 286 0.0 1.6 0.00 0.00 0.00 3 1012.8
20260504214404 8 278 0.0 1.6 0.00 0.00 0.00 3 1012.9
20260504213903 8 278 0.0 1.6 0.00 0.00 0.00 3 1012.9
20260504211904 8 291 0.0 0.0 0.00 0.00 0.00 3 1013.0
20260504210904 8 287 0.0 0.0 0.00 0.00 0.00 3 1013.0
20260504204403 10 292 0.0 1.6 0.00 0.00 0.00 3 1013.0
20260504203903 10 298 0.0 1.6 0.00 0.00 0.00 3 1013.0
20260504203405 10 297 0.0 11.3 0.00 0.00 0.00 3 1012.9
20260504201404 10 314 0.0 0.0 0.00 0.00 0.00 3 1012.7
20260504200905 10 313 0.0 1.6 0.00 0.00 0.00 3 1012.7
20260504194904 11 327 0.0 0.0 0.00 0.00 0.00 3 1012.5
20260504194403 11 304 0.0 1.6 0.00 0.00 0.00 3 1012.5
20260504191905 12 350 3.2 16.1 0.00 0.00 0.00 3 1012.5
20260504191404 12 317 8.0 19.3 0.00 0.00 0.00 3 1012.5
20260504190904 12 322 4.8 16.1 0.00 0.00 0.00 3 1012.5
20260504190406 12 305 8.0 19.3 0.00 0.00 0.00 3 1012.5
20260504184903 12 309 8.0 20.9 0.00 0.00 0.00 3 1012.3
20260504183904 12 325 0.0 16.1 0.00 0.00 0.00 3 1012.3
20260504183407 12 319 1.6 19.3 0.00 0.00 0.00 3 1012.3
20260504180904 12 312 9.7 20.9 0.00 0.00 0.00 3 1012.2
20260504174904 13 305 0.0 1.6 0.00 0.00 0.00 3 1012.2
20260504174403 13 306 4.8 16.1 0.00 0.00 0.00 3 1012.2
20260504173403 13 337 9.7 19.3 0.00 0.00 0.00 3 1012.2
20260504171903 15 318 9.7 19.3 0.00 0.00 0.00 3 1012.2
20260504171405 15 331 6.4 19.3 0.00 0.00 0.00 3 1012.2
20260504160404 12 336 0.0 11.3 0.00 0.00 0.00 3 1012.3
20260504150903 13 313 1.6 4.8 0.00 0.00 0.00 3 1012.3
20260504140403 12 310 1.6 4.8 0.00 0.00 0.00 3 1012.5
20260504130403 12 314 3.2 11.3 0.00 0.00 0.00 3 1012.6
20260504110404 11 71 0.0 0.0 0.00 0.00 0.00 3 1012.5
20260504081403 10 73 0.0 4.8 0.00 0.00 0.00 3 1012.0
20260504080403 10 76 0.0 8.0 0.00 0.00 0.00 3 1011.8
20260504050404 8 16 0.0 8.0 0.00 0.08 0.00 3 1010.7
20260504044905 8 61 0.0 0.0 0.00 0.10 0.00 3 1010.7
20260504043404 8 44 0.0 3.2 0.00 0.13 0.00 3 1010.6
20260504041404 8 44 0.0 0.0 0.00 0.13 0.00 3 1010.4
20260504040403 8 43 0.0 0.0 0.00 0.13 0.00 3 1010.4
20260504034403 8 61 0.0 0.0 0.00 0.13 0.00 3 1010.3
20260504033903 8 62 0.0 0.0 0.00 0.13 0.00 3 1010.3
20260504031904 8 37 0.0 0.0 0.00 0.13 0.00 3 1010.2
20260504031404 8 37 0.0 0.0 0.00 0.13 0.00 3 1010.2
20260504030403 8 49 1.6 8.0 0.00 0.13 0.00 3 1010.2
20260504024904 8 42 1.6 8.0 0.00 0.13 0.00 3 1010.2
20260504021904 8 79 0.0 0.0 0.00 0.15 0.00 3 1010.2
20260504020904 8 48 3.2 8.0 0.00 0.15 0.00 3 1010.2
20260504020404 8 44 1.6 9.7 0.00 0.15 0.00 3 1010.2
20260504013403 8 38 0.0 9.7 0.00 0.15 0.00 3 1010.0
20260504011404 10 93 0.0 0.0 0.00 0.20 0.00 3 1009.7
20260504010904 10 86 0.0 4.8 0.00 0.20 0.00 3 1009.8
20260504004904 10 52 1.6 4.8 0.00 0.23 0.00 3 1009.7
20260504003904 10 45 0.0 0.0 0.00 0.25 0.00 3 1009.7
20260504001904 10 63 1.6 4.8 0.00 0.33 0.00 3 1009.7
20260504001403 10 63 0.0 0.0 0.00 0.33 0.00 3 1009.7
20260504000903 10 63 0.0 4.8 0.00 0.33 0.00 3 1009.7